This is the latest recevied weather packets stored in our database for station/object PU2ONU-13. If no packets are shown the sender has not sent any weather packets the latest 10 day(s).
| Time | Temp. | Humidity | Pressure | Rain* | Wind** | Luminosity | Snow |
|---|---|---|---|---|---|---|---|
| 1777525212 | 28.89° C | 44% | 1016 hPa | - | - | - | - |
| 1777524013 | 28.89° C | 46% | 1016 hPa | - | - | - | - |
| 1777522812 | 28.89° C | 44% | 1017 hPa | - | - | - | - |
| 1777521613 | 29.44° C | 45% | 1016 hPa | - | - | - | - |
| 1777520413 | 29.44° C | 45% | 1016 hPa | - | - | - | - |
| 1777519213 | 29.44° C | 45% | 1017 hPa | - | - | - | - |
| 1777518014 | 29.44° C | 46% | 1016 hPa | - | - | - | - |
| 1777516814 | 29.44° C | 46% | 1016 hPa | - | - | - | - |
| 1777515613 | 30° C | 43% | 1017 hPa | - | - | - | - |
| 1777513214 | 30° C | 44% | 1016 hPa | - | - | - | - |
| 1777512012 | 29.44° C | 45% | 1016 hPa | - | - | - | - |
| 1777510812 | 30° C | 43% | 1015 hPa | - | - | - | - |
| 1777509613 | 29.44° C | 44% | 1015 hPa | - | - | - | - |
| 1777508413 | 30° C | 44% | 1016 hPa | - | - | - | - |
| 1777494014 | 32.22° C | 49% | 1013 hPa | - | - | - | - |
| 1777461613 | 28.89° C | 51% | 1016 hPa | - | - | - | - |
| 1777458013 | 27.78° C | 52% | 1016 hPa | - | - | - | - |
| 1777455612 | 27.22° C | 52% | 1015 hPa | - | - | - | - |
| 1777454413 | 27.22° C | 52% | 1015 hPa | - | - | - | - |
| 1777453212 | 27.78° C | 50% | 1015 hPa | - | - | - | - |
| 1777452013 | 27.22° C | 51% | 1015 hPa | - | - | - | - |
| 1777450818 | 27.78° C | 51% | 1015 hPa | - | - | - | - |
| 1777448412 | 28.33° C | 51% | 1015 hPa | - | - | - | - |
| 1777447213 | 28.33° C | 50% | 1015 hPa | - | - | - | - |
| 1777446012 | 27.78° C | 52% | 1015 hPa | - | - | - | - |
* Rain since midnight (hover to see other rain measurements)
** Current wind speed in m/s (hover to see current wind gust speed)